Regional Weather Roundup
Issued by NWS

Home | Current Version | Previous Version | Graphics & Text | Print | Product List | Glossary On
Versions: 1 2 3 4 5 6 7 8 9 10 11 12 13 14 15 16 17 18 19 20 21 22 23 24 25 26 27 28 29 30 31 32 33 34 35 36 37 38 39 40 41 42 43 44 45 46 47 48 49 50
000
ASUS45 KABQ 282201
RWRNM
WEATHER ROUNDUP FOR NEW MEXICO
NATIONAL WEATHER SERVICE ALBUQUERQUE NM
400 PM MDT SAT MAR 28 2015

NOTE: "FAIR" MEANS FEW OR NO CLOUDS BELOW 12,000 FEET AGL WITH NO
       SIGNIFICANT WEATHER OR OBSTRUCTIONS TO VISION.

      THIS PRODUCT IS RELEASED AS TWO VERSIONS.  ONE VERSION NEAR
      THE TOP OF THE HOUR CONTAINING PRELIMINARY DATA FROM ALBUQUERQUE
      AND OTHER STATIONS.  A FINAL VERSION WITH ADDITIONAL DATA IS
      ISSUED ABOUT 10 MINUTES AFTER THE HOUR.

NMZ501-503-504-510>518-282300-
NORTHWEST PLATEAU/NORTHCENTRAL MOUNTAINS

CITY           SKY/WX    TMP DP  RH WIND       PRES   REMARKS
FARMINGTON     SUNNY     75  19  12 W15G24    30.12F
SANTA FE       SUNNY     74  14  10 W13G18    30.13F
TAOS           SUNNY     70  18  13 W14G26    30.17F

$$
NMZ402-403-502-505>509-282300-
WESTCENTRAL MOUNTAINS/SOUTHWEST MOUNTAINS

CITY           SKY/WX    TMP DP  RH WIND       PRES   REMARKS
GALLUP         SUNNY     75   4   6 W13G24    30.20F

$$
NMZ407-409-411-412-282300-
SOUTHERN DESERTS

CITY           SKY/WX    TMP DP  RH WIND       PRES   REMARKS
DEMING         SUNNY     87  -1   3 NW20G30   30.09F
ALAMOGORDO     MOSUNNY   84  14   7 NW12G21   30.08F
T OR C         SUNNY     84   8   5 MISG      30.07F

$$
NMZ519>523-282300-
CENTRAL VALLEYS/CENTRAL HIGHLANDS

CITY           SKY/WX    TMP DP  RH WIND       PRES   REMARKS
ALBUQUERQUE    SUNNY     79  19  10 W8        30.10F
DOUBLE EAGLE   SUNNY     75  18  11 VRB6      30.14F
CLINES CORNERS SUNNY     71  16  12 NW23      30.18F
BELEN          FAIR      82  13   7 NW13G18   30.09F
SOCORRO        NOT AVBL

$$
NMZ524>526-539-540-282300-
SOUTHCENTRAL MOUNTAINS

CITY           SKY/WX    TMP DP  RH WIND       PRES   REMARKS
RUIDOSO        NOT AVBL

$$
NMZ527>531-282300-
NORTHEAST HIGHLANDS/NORTHEAST PLAINS

CITY           SKY/WX    TMP DP  RH WIND       PRES   REMARKS
LAS VEGAS      SUNNY     72  15  11 S9G20     30.13F
RATON          SUNNY     74  16  11 S13G26    30.06F
CLAYTON        SUNNY     79  20  11 SW9G20    30.02F

$$
NMZ532>537-282300-
EASTCENTRAL PLAINS

CITY           SKY/WX    TMP DP  RH WIND       PRES   REMARKS
TUCUMCARI      SUNNY     83  14   7 SW9       30.00F
CANNON AFB     NOT AVBL
CLOVIS AIRPORT SUNNY     81  23  12 N9        30.02F

$$
NMZ028-029-538-282300-
SOUTHEAST PLAINS

CITY           SKY/WX    TMP DP  RH WIND       PRES   REMARKS
ROSWELL        SUNNY     87  20   8 N6        30.00F
ARTESIA        SUNNY     86  25  10 NW8       30.00F
CARLSBAD       SUNNY     88  23   9 NE5       29.97F
HOBBS          SUNNY     84  19   9 W10G20    30.00F


$$


USA.gov is the U.S. government's official web portal to all federal, state and local government web resources and services.